TimeCST,TemperatureF,Dew PointF,Humidity,Sea Level PressureIn,VisibilityMPH,Wind Direction,Wind SpeedMPH,Gust SpeedMPH,PrecipitationIn,Events,Conditions,WindDirDegrees,DateUTC
12:15 AM,38.3,32.0,78,29.51,10.0,WSW,28.8,36.8,N/A,,Overcast,240,2013-02-11 06:15:00
12:35 AM,37.4,32.0,81,29.51,10.0,WSW,27.6,33.4,N/A,,Overcast,240,2013-02-11 06:35:00
12:55 AM,36.7,32.0,83,29.52,10.0,WSW,29.9,40.3,N/A,,Overcast,240,2013-02-11 06:55:00
1:15 AM,36.3,32.0,84,29.52,10.0,SW,23.0,34.5,N/A,,Overcast,230,2013-02-11 07:15:00
1:35 AM,35.6,31.6,85,29.54,10.0,WSW,27.6,33.4,N/A,,Overcast,240,2013-02-11 07:35:00
1:55 AM,35.1,30.9,85,29.55,10.0,WSW,25.3,33.4,N/A,,Overcast,240,2013-02-11 07:55:00
2:15 AM,34.7,30.2,84,29.55,10.0,WSW,25.3,33.4,N/A,,Overcast,240,2013-02-11 08:15:00
2:35 AM,34.0,29.7,84,29.56,10.0,WSW,25.3,33.4,N/A,,Overcast,240,2013-02-11 08:35:00
2:55 AM,33.8,29.8,85,29.56,10.0,WSW,23.0,33.4,N/A,,Overcast,240,2013-02-11 08:55:00
3:15 AM,33.4,29.3,85,29.56,10.0,WSW,25.3,34.5,N/A,,Overcast,240,2013-02-11 09:15:00
3:35 AM,33.3,28.6,83,29.56,10.0,WSW,24.2,33.4,N/A,,Overcast,250,2013-02-11 09:35:00
3:55 AM,33.1,28.0,82,29.57,10.0,WSW,31.1,42.6,N/A,,Overcast,250,2013-02-11 09:55:00
4:15 AM,32.9,26.8,78,29.58,10.0,WSW,31.1,38.0,N/A,,Overcast,250,2013-02-11 10:15:00
4:35 AM,32.9,26.8,78,29.58,10.0,WSW,31.1,39.1,N/A,,Overcast,250,2013-02-11 10:35:00
4:55 AM,32.9,26.8,78,29.59,10.0,WSW,29.9,40.3,N/A,,Overcast,250,2013-02-11 10:55:00
5:15 AM,32.9,26.6,78,29.59,10.0,WSW,33.4,41.4,N/A,,Overcast,250,2013-02-11 11:15:00
5:35 AM,32.5,26.6,79,29.61,10.0,WSW,26.5,43.7,N/A,,Overcast,250,2013-02-11 11:35:00
5:55 AM,32.4,26.8,80,29.61,10.0,WSW,26.5,39.1,N/A,,Overcast,250,2013-02-11 11:55:00
6:15 AM,32.4,27.0,80,29.61,10.0,West,28.8,35.7,N/A,,Overcast,260,2013-02-11 12:15:00
6:35 AM,32.4,27.1,81,29.62,10.0,WSW,28.8,35.7,N/A,,Overcast,250,2013-02-11 12:35:00
6:55 AM,32.4,27.1,81,29.63,10.0,WSW,27.6,35.7,N/A,,Overcast,250,2013-02-11 12:55:00
7:15 AM,32.4,27.0,80,29.64,10.0,West,32.2,39.1,N/A,,Overcast,260,2013-02-11 13:15:00
7:35 AM,32.5,26.2,78,29.65,10.0,West,31.1,40.3,N/A,,Overcast,260,2013-02-11 13:35:00
7:55 AM,32.4,25.5,76,29.66,10.0,West,33.4,41.4,N/A,,Overcast,260,2013-02-11 13:55:00
8:15 AM,32.2,26.1,78,29.67,10.0,West,23.0,40.3,N/A,,Overcast,260,2013-02-11 14:15:00
8:35 AM,32.0,25.3,76,29.69,10.0,West,29.9,44.9,N/A,,Overcast,270,2013-02-11 14:35:00
8:55 AM,32.0,25.5,77,29.70,10.0,West,29.9,39.1,N/A,,Overcast,270,2013-02-11 14:55:00
9:15 AM,32.0,26.2,79,29.70,10.0,West,29.9,35.7,N/A,,Overcast,270,2013-02-11 15:15:00
9:35 AM,32.0,25.7,78,29.72,10.0,West,27.6,39.1,N/A,,Overcast,270,2013-02-11 15:35:00
9:55 AM,32.0,25.5,77,29.73,10.0,West,29.9,43.7,N/A,,Overcast,270,2013-02-11 15:55:00
10:15 AM,32.0,26.1,79,29.74,10.0,West,33.4,39.1,N/A,,Overcast,270,2013-02-11 16:15:00
10:35 AM,32.0,25.9,78,29.76,10.0,West,27.6,38.0,N/A,,Overcast,270,2013-02-11 16:35:00
10:55 AM,32.0,25.3,76,29.77,10.0,West,32.2,39.1,N/A,,Overcast,270,2013-02-11 16:55:00
11:15 AM,32.0,25.3,76,29.78,10.0,West,35.7,41.4,N/A,,Overcast,260,2013-02-11 17:15:00
11:35 AM,31.8,25.3,77,29.78,10.0,West,31.1,38.0,N/A,,Overcast,270,2013-02-11 17:35:00
11:55 AM,31.8,24.3,74,29.79,10.0,West,28.8,40.3,N/A,,Overcast,270,2013-02-11 17:55:00
12:15 PM,31.6,24.3,74,29.80,10.0,West,28.8,41.4,N/A,,Overcast,280,2013-02-11 18:15:00
12:35 PM,31.1,23.5,74,29.81,10.0,West,35.7,43.7,N/A,,Overcast,270,2013-02-11 18:35:00
12:55 PM,31.1,24.1,75,29.82,10.0,West,29.9,41.4,N/A,,Overcast,270,2013-02-11 18:55:00
1:15 PM,31.1,23.7,74,29.83,10.0,West,28.8,41.4,N/A,,Overcast,270,2013-02-11 19:15:00
1:35 PM,31.1,24.4,76,29.84,10.0,West,23.0,38.0,N/A,,Overcast,270,2013-02-11 19:35:00
1:55 PM,31.1,24.3,76,29.84,10.0,West,27.6,33.4,N/A,,Overcast,280,2013-02-11 19:55:00
2:15 PM,31.1,23.2,72,29.86,10.0,West,29.9,36.8,N/A,,Overcast,280,2013-02-11 20:15:00
2:35 PM,31.1,24.8,77,29.86,10.0,West,25.3,32.2,N/A,,Overcast,270,2013-02-11 20:35:00
2:55 PM,31.1,23.5,74,29.87,10.0,West,28.8,35.7,N/A,,Overcast,280,2013-02-11 20:55:00
3:15 PM,30.9,23.0,72,29.89,10.0,WNW,27.6,38.0,N/A,,Overcast,290,2013-02-11 21:15:00
3:35 PM,30.9,23.9,75,29.89,10.0,West,21.9,32.2,N/A,,Overcast,280,2013-02-11 21:35:00
3:55 PM,30.7,23.4,74,29.90,10.0,West,26.5,33.4,N/A,,Overcast,280,2013-02-11 21:55:00
4:55 PM,30.2,22.8,74,29.92,10.0,West,28.8,33.4,N/A,,Overcast,280,2013-02-11 22:55:00
5:15 PM,30.2,22.6,73,29.93,10.0,West,29.9,36.8,N/A,,Overcast,280,2013-02-11 23:15:00
5:35 PM,30.0,22.5,73,29.95,10.0,West,28.8,34.5,N/A,,Overcast,280,2013-02-11 23:35:00
5:55 PM,30.0,22.8,75,29.96,10.0,West,23.0,29.9,N/A,,Overcast,280,2013-02-11 23:55:00
6:15 PM,30.2,23.9,77,29.96,10.0,West,21.9,27.6,N/A,,Overcast,280,2013-02-12 00:15:00
6:35 PM,30.0,22.6,74,29.98,10.0,WNW,24.2,31.1,N/A,,Overcast,290,2013-02-12 00:35:00
6:55 PM,29.8,22.8,75,29.98,10.0,West,24.2,32.2,N/A,,Overcast,280,2013-02-12 00:55:00
7:15 PM,29.8,23.0,76,29.99,10.0,West,21.9,27.6,N/A,,Overcast,280,2013-02-12 01:15:00
7:55 PM,29.5,23.4,78,29.99,10.0,West,20.7,26.5,N/A,,Overcast,280,2013-02-12 01:55:00
8:15 PM,29.3,23.0,77,29.99,10.0,West,21.9,-,N/A,,Overcast,280,2013-02-12 02:15:00
8:35 PM,29.1,22.6,77,30.00,10.0,West,21.9,26.5,N/A,,Overcast,280,2013-02-12 02:35:00
8:55 PM,28.8,22.6,78,30.01,10.0,West,19.6,31.1,N/A,,Overcast,280,2013-02-12 02:55:00
9:15 PM,28.4,22.3,78,30.01,10.0,West,21.9,29.9,N/A,,Overcast,280,2013-02-12 03:15:00
9:35 PM,28.4,21.9,77,30.01,10.0,WNW,20.7,26.5,N/A,,Overcast,290,2013-02-12 03:35:00
9:55 PM,28.4,22.6,79,30.02,10.0,West,19.6,-,N/A,,Overcast,280,2013-02-12 03:55:00
10:15 PM,28.0,22.5,80,30.01,10.0,West,23.0,26.5,N/A,,Overcast,270,2013-02-12 04:15:00
10:35 PM,28.0,22.8,81,30.02,10.0,WNW,12.7,-,N/A,,Overcast,290,2013-02-12 04:35:00
10:55 PM,27.9,22.1,79,30.03,10.0,WNW,16.1,-,N/A,,Overcast,290,2013-02-12 04:55:00
11:15 PM,27.3,21.4,78,30.04,10.0,WNW,17.3,24.2,N/A,,Overcast,300,2013-02-12 05:15:00
11:35 PM,27.1,21.4,79,30.04,10.0,West,19.6,24.2,N/A,,Overcast,280,2013-02-12 05:35:00
11:55 PM,26.6,20.7,78,30.06,10.0,WNW,19.6,-,N/A,,Overcast,290,2013-02-12 05:55:00